Notices

What's New in latest Release from April 7th, 2021:

- Updated Glossary, including Speed of Maximum Gust, and Total Hourly Precipitation

- Updated national and regional climate services offices contacts and prices information

- Addition of station inventory lists for 1981-2010, 1971-2000, and 1961-1990 Normals.

If you haven't already, please take our survey and provide feedback about our website: https://eccc.sondage-survey.ca/f/LanguageSelection.aspx?s=442ca660-fcf1-47c0-95a9-59707d6fd709

Hourly Data Report for August 30, 2015

IQALUIT CLIMATE
NUNAVUT

63°44'50.000" N
68°32'40.000" W
33.50 m
2402592
71321
XFB

Download Data

Hourly Data (August 2015)
Hourly Data Report for August 30, 2015
TIME
LST
Temp Definition
°C
Dew Point Definition
°C
Rel Hum Definition
%
Precip. Amount Definition
mm

Wind Dir Definition
10's deg

Wind Spd Definition
km/h
Visibility Definition
km
Stn Press Definition
kPa
Hmdx Definition


Wind Chill Definition


Weather Definition


00:00 5.3 3.1 86 0.0 32 13   100.37     LegendNANA
01:00 4.9 2.7 85 0.0 33 11   100.39     LegendNANA
02:00 4.5 2.2 85 0.0 32 14   100.41     LegendNANA
03:00 4.1 2.0 86 0.0 32 15   100.42     LegendNANA
04:00 4.4 2.3 87 0.0 33 16   100.42     LegendNANA
05:00 5.5 2.6 82 0.0 35 19   100.45     LegendNANA
06:00 6.2 2.7 79 0.0 1 14   100.47     LegendNANA
07:00 6.6 3.0 78 0.0 2 9   100.51     LegendNANA
08:00 7.8 3.0 71 0.0 4 11   100.54     LegendNANA
09:00 8.2 3.3 71 0.0 5 16   100.59     LegendNANA
10:00 8.8 3.5 69 0.0 5 9   100.60     LegendNANA
11:00 8.0 4.6 79 0.0 35 15   100.62     LegendNANA
12:00 9.3 4.5 72 0.0 29 8   100.62     LegendNANA
13:00 7.4 4.7 83 0.0 14 10   100.68     LegendNANA
14:00 6.2 5.1 92 0.0 16 5   100.72     LegendNANA
15:00 6.3 5.4 94 0.0 15 5   100.73     LegendNANA
16:00 4.8 3.8 94 0.0 13 8   100.72     LegendNANA
17:00 LegendMM 4.3 68 0.0 31 21   100.70     LegendNANA
18:00 9.4 5.1 75 0.0 32 20   100.73     LegendNANA
19:00 8.1 4.7 79 0.0 32 19   100.75     LegendNANA
20:00 7.5 4.8 83 0.0 33 19   100.75     LegendNANA
21:00 7.2 4.6 84 0.0 33 21   100.76     LegendNANA
22:00 6.5 4.1 85 0.0 33 20   100.78     LegendNANA
23:00 5.3 3.4 88 0.0 32 18   100.80     LegendNANA

Notes on Data Quality.

Legend

  • E = Estimated
  • M = Missing
  • NA = Not Available*
  • [empty] = Indicates an unobserved value
Date modified: